Location: *
(53.9002°N, 27.5624°E)
Time: 17:27:13
(UTC+00:00)

H-2A R/B - Pass Details

Date: 12 November 2019
Orbit: 733 x 838 km, 98.3° (Epoch: 10 December)

Event Time Altitude Azimuth Distance (km) Brightness Sun altitude
Exits shadow 15:41:05 14° 52° (NE) 2,163 3.8 -12.4°
Maximum altitude 15:41:32 14° 47° (NE) 2,153 3.8 -12.5°
Drops below altitude 10° 15:44:15 10° 16° (NNE) 2,431 4.3 -12.9°
Sets 15:47:41 0° 353° (N) 3,348 5.3 -13.4°
